GEFSMA_500_meanwind_000.txt.gz
Wind_Speed
33 33 33 33 34 35 36 37 38 39 40 41 41 42 42 42 43 44 46 46 48 49 49 50 50 51 51 51 49 47 45 45 44 42 39 37 36 35 34 32 32 30 29
38 38 39 39 39 39 38 38 39 40 42 43 44 45 46 47 48 49 49 49 49 49 50 50 49 51 51 52 52 50 48 46 46 45 43 40 39 36 35 34 33 32 30
42 44 45 46 46 45 45 45 45 46 47 49 50 51 52 53 54 54 53 53 53 52 52 52 51 52 51 51 51 51 50 48 48 47 46 44 42 40 37 36 35 34 32
42 44 46 48 49 49 50 53 56 57 58 60 61 62 62 63 62 62 61 60 60 59 57 56 55 55 55 55 54 53 54 52 51 50 50 48 46 43 40 38 36 35 34
45 47 49 50 51 54 57 59 61 63 63 65 65 65 65 66 65 64 65 65 65 67 66 65 64 61 61 60 59 58 57 56 55 54 54 53 50 47 43 40 37 36 36
47 50 52 52 55 59 61 61 62 62 62 64 65 64 65 67 68 65 63 59 59 62 64 66 69 70 69 68 64 62 61 61 60 59 57 55 52 47 45 43 40 40 39
51 54 56 59 62 63 64 65 64 65 66 69 70 70 69 68 71 71 67 67 67 70 71 69 70 68 68 71 70 68 65 63 62 62 60 58 55 52 47 45 42 41 41
54 59 62 64 67 68 70 72 73 75 76 79 81 82 82 80 80 81 83 83 79 79 79 80 80 76 72 71 71 66 65 67 65 64 62 61 59 57 53 50 46 43 42
59 64 67 70 73 76 78 81 82 84 85 86 87 87 88 88 87 85 84 82 81 81 80 79 75 74 75 74 75 75 72 66 66 67 69 67 64 60 56 52 49 47 45
67 70 73 75 78 79 80 80 81 82 83 82 79 78 78 78 78 79 77 75 70 66 64 61 62 63 67 72 73 73 75 73 73 74 72 72 70 67 62 59 58 55 52
74 76 78 79 80 80 78 76 75 74 73 72 69 67 67 64 63 64 64 59 59 57 56 54 51 51 57 65 68 70 74 75 77 78 77 74 74 73 70 67 68 64 62
77 79 80 81 80 78 75 73 69 67 66 64 64 64 64 64 62 61 61 56 58 60 61 58 54 50 47 51 56 62 66 71 73 78 79 79 78 79 79 76 71 69 71
80 81 82 82 80 76 70 66 63 63 64 64 64 63 64 64 64 64 66 64 60 56 55 53 51 50 49 51 49 50 55 58 62 67 74 77 79 80 82 84 81 76 75
83 83 81 80 76 68 65 64 62 60 58 58 57 56 56 58 60 61 59 55 50 50 50 50 50 48 48 49 46 43 43 42 43 48 57 64 69 72 74 77 76 74 74
83 80 76 68 61 59 58 55 51 48 47 46 44 42 41 41 42 42 41 39 39 40 40 38 39 40 41 40 38 36 34 32 32 33 39 46 52 60 67 68 68 66 63
76 67 58 54 51 51 50 48 44 41 40 38 35 33 32 32 31 30 30 30 31 29 25 22 25 28 28 29 32 29 26 28 27 27 29 32 36 42 49 54 58 58 58
54 49 47 46 45 44 43 42 40 39 37 35 32 30 28 26 25 25 24 24 24 22 21 18 19 20 21 22 21 19 22 24 23 25 25 24 25 28 33 40 48 53 54
42 42 41 39 37 36 35 35 34 35 36 35 33 30 27 25 26 27 26 24 24 20 17 17 13 12 14 15 15 18 21 16 21 21 19 21 26 27 30 42 47 47 45
35 33 32 33 35 35 34 33 33 34 34 33 31 29 27 25 25 21 18 17 18 19 17 17 14 14 15 14 16 16 15 17 17 17 18 21 19 17 9 20 23 26 28
27 29 31 31 30 27 25 25 26 25 23 24 22 20 19 18 16 16 18 16 14 14 14 17 19 16 19 19 19 17 15 13 13 14 14 11 10 11 25 24 27 25 25
23 23 22 22 22 20 21 23 21 18 17 16 15 13 13 14 14 15 17 16 15 14 13 14 19 19 16 16 18 19 17 12 12 10 12 12 6 18 26 28 32 36 30
21 21 23 24 25 24 23 22 21 20 17 14 13 12 12 13 12 14 16 14 14 12 12 12 13 9 11 17 20 20 18 15 13 10 15 12 10 18 21 23 30 35 32
26 26 27 27 27 27 26 23 21 20 18 15 14 13 11 10 12 14 11 7 8 12 11 12 12 10 9 14 18 17 13 13 13 12 13 11 14 23 28 24 26 32 28
27 28 28 28 27 27 26 24 22 20 18 15 15 13 11 11 9 9 2 4 6 11 13 13 14 15 16 18 17 17 18 17 15 13 14 13 16 26 29 24 22 28 27
29 28 28 28 28 27 26 26 25 22 19 16 13 11 11 8 6 2 3 5 9 10 12 17 17 16 17 17 15 18 22 17 14 14 14 14 16 27 32 26 21 26 24
33 31 30 28 26 25 23 23 23 21 18 16 13 10 9 5 7 4 3 3 5 2 5 21 21 19 18 16 16 23 25 20 16 15 16 15 22 30 30 28 25 20 18

GEFSMA_500_meanwind_006.txt.gz
Wind_Speed
36 35 36 36 36 35 35 36 38 39 41 43 44 45 46 47 47 47 46 47 46 47 47 47 47 47 48 49 50 50 50 49 48 47 46 44 43 42 39 37 35 34 33
38 37 36 36 38 40 41 42 44 46 48 48 48 49 49 49 51 53 54 54 55 54 54 53 53 53 53 53 52 52 52 52 51 50 49 47 46 45 42 40 37 36 35
40 38 37 38 39 42 44 47 50 53 54 54 54 54 54 54 55 56 56 56 57 58 58 58 58 58 59 59 58 56 55 54 54 53 52 51 49 46 44 42 40 38 37
43 42 40 41 43 46 49 51 53 55 56 55 55 55 57 60 62 62 62 61 61 61 62 62 62 60 59 60 61 62 62 60 59 57 56 54 52 50 47 44 42 40 38
47 44 43 45 48 51 52 54 55 57 57 57 58 60 62 64 65 66 67 68 69 70 70 70 71 70 67 64 62 62 63 64 64 63 62 59 57 54 52 49 45 43 40
45 45 46 48 52 53 53 55 57 58 60 62 64 66 67 68 69 71 72 73 74 76 77 78 78 78 77 74 72 69 66 65 65 64 65 66 64 60 57 54 51 48 45
45 47 48 51 55 56 57 59 61 63 65 67 68 70 70 72 73 74 76 77 78 77 78 78 78 78 79 80 79 78 76 73 70 67 65 65 66 65 62 59 56 53 49
48 53 55 57 58 59 61 64 66 68 69 70 73 76 77 76 76 77 77 76 74 72 70 70 71 72 74 72 72 76 79 79 78 76 72 69 66 65 65 62 59 57 53
58 61 59 60 62 63 66 69 72 74 74 75 78 81 83 82 79 76 73 69 66 63 62 62 63 64 64 64 63 63 69 73 75 77 77 76 72 68 64 62 60 59 56
67 67 69 71 73 74 75 77 79 80 81 82 82 84 84 81 76 71 63 60 59 59 60 61 61 62 61 60 58 57 59 62 64 68 73 77 77 73 69 65 62 61 59
70 73 76 79 81 83 85 86 86 86 86 85 84 80 75 68 62 59 54 51 52 53 54 56 58 59 59 58 56 56 56 57 57 58 62 67 73 75 72 70 67 63 61
72 76 80 83 86 88 90 90 89 86 83 79 72 65 58 53 50 49 48 46 45 45 45 47 49 51 53 55 55 56 56 56 57 58 60 61 63 68 71 71 69 66 64
76 79 82 83 84 85 85 82 77 72 66 59 53 49 48 47 45 44 43 43 42 40 40 39 40 42 45 48 51 54 54 55 56 58 59 59 59 60 64 69 71 69 67
78 78 77 74 72 68 65 59 53 48 45 43 43 43 43 42 41 41 41 41 40 38 36 34 34 36 38 41 43 44 44 45 46 49 52 52 54 56 59 63 69 71 70
70 66 60 56 52 49 46 42 39 38 38 38 39 39 38 38 37 38 39 39 37 34 30 28 29 30 32 32 32 32 33 35 37 40 42 43 44 47 52 56 62 68 71
50 46 44 43 42 41 39 37 36 36 37 37 38 38 37 37 37 37 38 36 33 30 28 25 25 27 28 27 26 26 26 27 29 29 32 33 35 38 41 45 51 59 67
37 36 36 36 35 34 35 35 34 34 33 33 33 32 32 33 34 35 34 31 29 28 25 22 24 25 24 21 20 18 19 19 21 22 24 26 27 28 31 35 39 45 56
35 35 34 34 34 33 32 31 30 29 28 28 29 28 28 28 28 27 26 24 23 23 22 19 21 22 20 16 13 11 12 13 15 16 18 18 19 22 23 26 30 35 43
39 38 38 37 37 36 34 34 33 32 31 30 28 28 27 26 24 22 20 19 19 19 19 17 18 20 19 16 13 11 11 12 12 13 14 15 16 17 18 19 20 25 32
41 41 41 41 40 39 39 38 37 36 35 33 30 28 27 24 21 19 18 18 19 18 18 16 17 19 19 17 14 12 12 12 11 10 11 13 15 14 17 18 19 21 26
43 44 44 44 42 41 40 39 38 37 36 33 32 30 27 24 21 19 18 18 19 19 19 18 17 18 17 17 15 14 13 12 10 9 11 13 14 7 3 11 16 20 27
44 46 45 43 41 38 38 37 36 35 34 31 30 29 27 23 20 19 18 18 18 17 16 16 15 15 14 15 16 14 13 11 8 8 9 10 12 8 7 12 16 21 27
45 46 43 38 35 34 34 34 34 32 31 30 28 28 26 22 19 18 17 16 14 13 12 11 10 10 10 10 11 11 11 9 5 6 6 6 7 7 13 17 21 26 30
45 44 41 37 35 34 34 33 32 31 30 29 27 26 25 22 19 17 15 13 12 12 12 10 9 9 10 9 10 11 10 6 2 2 3 6 7 13 19 21 24 27 30
43 42 39 37 37 36 34 32 30 28 27 27 26 25 23 21 19 16 13 11 11 13 12 10 10 11 11 11 13 13 10 7 4 2 5 9 12 18 25 28 28 27 28
41 39 37 37 37 37 34 32 28 25 24 24 24 24 22 19 17 14 12 10 11 12 10 8 10 14 13 14 16 15 12 8 5 4 7 11 16 21 25 28 31 32 30

GEFSMA_500_meanwind_012.txt.gz
Wind_Speed
29 29 29 28 29 31 33 35 36 36 36 37 38 38 39 40 42 43 43 43 44 45 46 46 46 46 46 46 46 46 46 46 46 46 47 47 46 46 45 44 43 41 40
30 31 32 32 33 35 37 39 40 41 42 43 43 44 45 46 46 47 47 47 47 47 47 47 48 48 48 48 48 48 49 50 51 52 52 52 51 50 49 47 46 43 41
35 37 37 38 40 42 43 45 46 46 47 48 48 49 50 51 51 51 51 51 51 51 51 51 51 51 51 51 51 51 51 52 53 55 57 58 58 57 55 53 50 47 44
38 39 40 42 44 45 47 49 50 50 49 50 52 53 54 54 55 56 56 57 57 58 59 59 58 57 56 55 55 54 54 55 55 57 58 60 61 61 61 59 57 53 50
39 40 42 43 44 46 48 49 49 50 51 52 54 55 57 57 58 59 60 63 64 65 65 65 65 65 63 62 61 61 60 60 60 60 61 62 63 63 63 63 62 60 57
40 41 43 45 47 49 50 51 51 54 57 58 60 61 62 63 64 65 67 69 71 72 73 73 72 72 71 70 68 68 67 66 65 65 65 64 65 66 67 66 65 64 63
42 45 47 49 51 53 54 55 58 61 64 67 69 70 69 69 70 72 74 75 77 79 79 80 79 78 77 76 75 74 73 72 71 70 69 68 67 66 67 68 68 67 66
47 49 51 54 55 58 60 62 64 67 71 74 76 77 76 73 72 74 76 77 78 80 81 81 81 80 78 77 76 76 74 72 71 69 68 67 67 67 67 68 70 70 69
52 54 56 57 59 62 65 67 69 72 74 75 77 78 77 74 71 69 70 71 73 74 75 75 75 74 73 72 71 70 68 66 63 62 62 62 63 65 66 69 71 72 73
57 59 60 61 64 65 66 67 67 68 68 68 69 69 68 65 61 57 58 60 61 61 61 61 61 60 60 59 58 57 56 56 55 55 56 58 61 63 64 66 70 73 75
61 62 63 65 64 64 62 61 61 60 59 58 56 55 55 54 53 52 52 51 50 48 47 46 46 46 46 46 46 46 47 48 49 50 51 54 57 60 63 64 66 70 74
62 63 64 63 62 58 56 55 55 54 53 53 52 51 51 51 51 50 49 47 45 41 40 39 39 39 39 40 40 42 43 45 46 47 48 49 50 53 57 60 62 64 68
62 62 61 59 55 51 49 49 49 49 50 50 50 50 49 49 48 47 46 45 42 39 36 36 36 36 37 37 39 40 41 42 43 44 45 46 48 49 52 57 58 59 62
61 60 56 51 47 45 44 45 46 48 49 49 50 49 48 47 46 45 44 42 39 35 33 33 35 35 36 37 37 38 37 37 37 39 42 45 47 48 49 50 52 53 56
60 55 48 44 42 41 43 45 47 48 49 50 50 50 48 47 44 42 41 39 37 32 29 31 33 35 36 35 34 33 31 31 32 34 36 38 40 43 44 46 49 51 53
54 46 42 40 40 42 45 47 49 50 51 51 51 50 48 47 44 41 39 37 36 32 27 26 30 33 34 33 31 29 27 27 27 28 29 30 31 33 36 39 43 47 51
42 39 38 39 41 44 47 49 51 52 52 52 51 49 47 45 43 41 39 37 35 32 26 22 25 27 28 28 28 26 24 23 24 23 23 23 24 27 30 33 37 40 45
35 36 37 40 44 47 50 52 52 52 52 51 49 47 45 43 42 40 38 36 33 30 24 20 21 23 24 24 24 23 22 22 21 20 20 21 23 24 27 30 33 36 40
35 37 39 43 47 51 52 52 52 51 50 48 47 45 42 41 39 37 36 33 31 28 23 19 20 22 22 21 20 20 20 20 20 20 19 20 22 24 27 30 32 35 38
37 39 43 47 50 52 52 51 50 48 47 46 44 41 39 38 36 34 32 30 28 25 22 20 20 21 21 20 19 18 18 19 19 18 19 20 22 25 28 30 32 34 36
41 44 48 51 52 52 51 49 47 45 45 44 42 39 37 36 33 30 28 26 24 22 21 20 19 19 19 19 17 15 15 15 15 15 17 19 21 23 21 21 21 25 30
46 49 52 53 53 51 49 48 45 43 43 41 39 37 35 32 29 26 24 22 21 19 18 17 16 16 16 15 14 12 11 11 10 11 13 15 16 13 10 8 8 15 22
50 52 53 52 51 50 49 46 44 43 41 38 36 33 31 28 25 22 20 18 17 16 15 13 12 11 11 10 8 7 7 6 5 7 9 10 7 5 5 3 7 12 17
52 53 52 51 50 49 46 44 42 41 38 34 30 28 27 24 22 19 17 15 13 12 11 10 10 9 8 6 5 5 5 4 1 4 6 5 6 9 10 10 12 16 20
51 51 51 50 48 46 44 41 39 35 32 28 25 25 23 20 18 15 14 13 11 10 10 9 9 8 7 6 6 7 6 4 3 3 4 7 11 13 13 16 19 23 29
50 51 51 49 45 43 41 37 33 29 26 24 23 22 20 17 13 11 11 11 10 10 9 9 9 8 8 8 9 9 8 6 5 5 6 9 12 14 16 20 26 31 36

GEFSMA_500_meanwind_018.txt.gz
Wind_Speed
25 25 26 27 28 29 30 31 32 33 33 35 37 38 39 40 41 43 45 46 48 49 49 49 49 49 49 48 48 48 47 47 46 46 47 47 46 45 44 43 41 40 40
25 26 27 28 30 30 32 33 34 35 36 37 39 41 42 44 45 46 47 48 50 51 53 54 54 54 53 52 51 51 50 50 50 51 51 51 50 50 50 49 48 46 45
26 27 29 30 31 33 34 36 37 39 40 41 43 44 45 47 48 49 50 51 52 53 55 56 57 57 57 56 54 53 53 53 54 54 54 54 54 54 54 54 53 52 50
28 30 32 33 35 36 38 40 41 43 45 46 48 49 50 51 51 53 54 55 57 58 58 59 60 60 60 59 58 56 56 56 57 57 58 58 57 57 57 57 57 56 55
32 33 35 37 39 41 42 44 45 47 48 50 51 53 54 55 56 57 58 60 61 63 64 65 66 66 66 65 65 64 62 61 61 61 62 63 63 63 62 61 60 59 58
35 38 40 42 44 46 47 49 50 52 53 54 55 55 56 57 59 59 59 61 63 64 66 67 68 69 70 71 72 71 69 67 67 67 67 68 68 68 67 66 64 63 61
40 42 44 47 48 50 52 53 54 55 56 57 57 57 57 58 58 58 58 58 58 59 61 63 65 66 68 71 73 73 71 70 70 69 69 69 70 71 72 72 69 67 65
45 48 50 52 53 55 56 56 57 58 59 58 58 57 56 55 55 54 53 53 54 55 56 57 58 60 62 63 64 66 67 67 66 66 67 69 71 73 74 75 74 71 69
50 53 56 57 58 58 59 60 60 61 60 58 57 55 53 50 47 45 45 47 49 51 52 54 55 56 56 56 56 56 58 60 61 62 64 67 70 73 75 76 76 74 71
55 58 61 61 61 61 61 62 63 62 59 56 54 52 49 46 45 44 43 45 47 49 50 51 52 53 53 52 52 53 54 55 56 57 59 61 64 67 71 73 74 73 71
59 63 65 64 63 63 63 63 61 57 53 50 48 46 44 44 45 47 47 47 49 52 52 52 52 51 51 50 50 50 50 51 50 50 51 52 54 58 62 66 68 70 70
64 67 66 64 63 63 61 57 53 48 44 42 42 43 43 45 47 50 51 51 52 53 55 54 53 51 49 48 48 47 47 46 45 44 44 45 46 48 53 58 61 64 67
66 66 63 62 61 58 53 48 43 40 39 40 41 43 45 48 51 53 54 55 55 55 55 54 54 52 49 47 46 44 43 43 42 40 40 39 39 40 43 48 52 56 59
64 62 60 58 54 50 46 42 40 39 39 41 43 46 49 53 55 57 58 58 57 55 54 52 52 52 50 47 44 42 41 39 38 37 37 36 36 35 37 40 45 48 51
60 58 56 52 49 46 43 41 41 41 42 45 48 51 54 57 60 61 61 61 59 57 53 50 49 48 48 46 43 39 37 36 34 34 34 34 35 35 36 37 40 43 47
56 54 51 49 46 44 43 43 44 45 48 51 54 57 60 61 62 62 61 60 59 57 54 48 44 43 44 43 40 36 33 32 31 32 32 33 34 34 35 36 38 41 43
52 50 48 46 45 44 45 46 49 51 54 57 60 61 63 63 62 60 58 56 55 54 51 44 40 39 40 40 37 32 29 28 28 29 30 32 33 33 34 36 37 39 42
49 48 46 45 45 46 48 51 54 56 59 61 63 63 63 62 59 57 54 52 50 48 44 39 36 35 36 35 31 28 25 25 25 27 29 31 33 33 34 35 37 38 40
47 46 45 46 47 50 52 55 57 59 61 63 64 63 61 58 55 53 50 47 44 41 39 36 32 31 31 30 26 23 22 22 23 25 27 29 31 33 34 35 36 38 40
46 46 47 48 51 53 56 58 59 60 61 62 61 58 55 52 49 46 43 41 38 36 34 31 27 26 26 25 21 20 20 21 22 23 25 28 30 32 34 35 37 38 39
46 47 49 52 55 57 58 59 60 60 59 57 53 50 48 45 42 39 37 34 32 30 28 25 22 21 21 20 18 18 18 19 20 22 23 25 27 29 32 34 36 37 39
48 50 53 55 57 58 58 58 58 56 54 50 46 44 42 39 35 31 28 27 26 24 22 20 17 17 16 16 16 16 16 17 18 19 20 22 24 26 28 29 30 32 33
51 53 54 55 56 56 56 54 53 51 48 44 40 38 35 32 27 23 22 22 22 19 17 15 14 13 12 12 12 12 13 13 14 14 16 18 20 21 20 20 22 24 26
52 53 54 54 54 53 52 50 48 45 41 38 35 32 30 27 23 21 21 20 17 14 12 11 11 10 9 8 8 8 9 9 10 10 11 12 12 12 13 14 14 15 17
53 53 53 52 51 49 47 44 41 38 36 35 33 30 26 23 20 19 17 15 12 9 9 11 10 8 7 7 6 6 6 5 5 5 6 5 5 8 9 10 8 5 5
52 51 51 49 47 44 42 39 36 35 35 33 30 26 22 19 17 15 13 10 8 9 10 11 10 8 7 7 7 6 5 3 1 0 2 4 7 10 9 8 7 6 10

GEFSMA_500_meanwind_024.txt.gz
Wind_Speed
15 15 15 16 17 18 20 22 24 26 28 30 31 33 35 37 38 40 42 42 44 45 46 46 47 47 48 48 48 48 48 49 49 49 48 48 47 46 45 45 44 44 44
14 14 15 17 18 20 22 24 26 29 31 33 36 38 40 42 44 46 48 49 49 50 50 51 51 51 51 51 51 51 51 51 51 52 51 51 50 49 49 48 47 47 47
15 16 16 17 19 20 23 25 28 31 34 37 39 42 44 46 49 50 52 55 55 56 55 56 56 55 55 54 54 53 54 54 54 54 54 54 53 52 52 52 51 51 50
19 20 20 21 23 24 26 29 32 35 38 40 43 45 47 50 52 54 56 58 59 60 60 60 59 59 58 58 57 57 57 57 58 58 58 57 57 56 55 55 55 54 53
25 25 25 27 28 30 32 35 38 40 43 45 47 48 50 53 55 57 60 61 63 63 63 64 62 61 61 61 60 59 59 60 60 61 61 61 60 60 60 59 59 58 57
29 30 31 32 34 36 38 40 43 45 47 49 50 52 54 56 58 60 62 64 66 66 66 65 63 62 61 60 60 60 59 60 60 60 61 62 63 64 64 64 63 62 61
32 33 35 37 38 40 42 45 47 49 51 52 53 55 57 59 61 63 65 66 67 66 65 63 61 59 57 57 55 54 53 53 54 55 57 59 61 64 65 67 67 67 66
36 37 39 41 42 44 46 48 50 52 54 55 57 58 59 60 62 63 63 62 62 61 58 56 53 52 51 49 48 47 48 49 50 52 53 55 57 60 64 66 68 69 70
39 41 43 45 47 49 50 51 52 54 57 58 59 59 59 59 60 59 58 54 51 49 49 48 48 47 46 47 47 47 47 48 49 51 52 54 55 56 59 63 66 68 70
44 46 47 48 49 51 53 54 55 57 58 59 60 60 59 58 56 54 51 48 44 43 44 45 45 46 47 48 49 49 50 50 51 52 53 54 55 55 57 59 61 63 66
50 50 51 52 53 54 54 56 57 58 59 59 60 60 59 57 54 52 48 46 43 43 43 45 47 48 50 51 52 53 53 54 55 55 55 54 54 55 55 56 58 59 60
53 53 53 54 54 54 55 57 58 59 59 59 59 59 58 56 54 51 49 48 47 46 47 49 51 53 54 56 56 57 57 57 57 57 56 55 55 54 54 55 56 57 57
53 52 52 53 54 54 56 58 58 59 59 59 58 58 57 56 54 53 53 52 52 52 53 55 57 59 60 61 62 62 61 60 60 58 56 55 55 54 54 55 55 56 56
51 51 52 53 53 55 57 57 58 58 58 58 58 57 57 56 56 56 56 57 58 58 59 60 62 63 65 66 66 65 64 62 60 58 56 55 55 55 54 54 54 54 55
52 52 53 54 56 56 57 56 57 57 58 58 58 58 57 57 57 59 60 62 63 64 64 63 63 64 66 67 66 65 63 61 59 56 55 54 54 54 54 54 53 53 54
53 53 54 55 55 56 55 56 56 57 57 58 58 58 58 59 60 61 63 64 66 67 67 65 63 60 60 62 62 60 58 56 54 53 52 51 51 51 51 51 51 51 51
53 53 53 54 54 55 55 56 56 57 58 58 59 59 60 61 62 63 64 65 65 65 64 61 59 55 53 53 53 53 51 49 48 47 47 46 47 47 48 47 47 47 47
53 52 52 53 54 55 55 56 56 57 58 59 59 60 61 62 63 63 62 61 59 57 56 52 50 48 46 45 45 45 43 43 42 41 41 41 41 42 42 43 43 43 44
51 52 52 53 53 54 55 56 57 58 58 59 60 61 61 61 60 58 56 53 50 48 46 44 41 40 39 39 39 38 38 37 36 35 34 34 36 37 37 38 39 40 41
51 52 52 52 53 54 55 56 57 58 59 59 60 60 59 57 53 49 45 43 41 40 38 35 33 32 32 33 33 32 31 30 29 28 28 29 30 31 33 35 37 38 40
51 51 51 52 53 54 55 56 57 58 58 58 57 55 52 48 44 41 39 37 35 33 30 28 27 27 27 27 26 25 24 23 22 22 22 24 25 27 29 31 34 36 38
50 50 51 52 54 55 56 56 57 57 56 54 51 47 44 42 40 38 35 33 30 27 25 24 23 22 22 21 19 18 17 16 16 17 19 20 22 24 27 29 32 34 37
49 50 51 53 54 55 55 55 55 54 51 48 45 42 41 40 37 34 31 28 25 22 21 20 19 18 16 14 12 10 10 11 12 14 15 17 19 21 24 27 30 32 35
49 50 52 53 54 54 53 52 50 47 45 43 41 39 37 34 32 29 25 22 19 17 16 14 13 10 8 6 5 5 6 7 8 10 12 14 16 19 21 24 27 30 34
49 51 51 51 51 51 49 46 43 41 40 38 37 34 30 28 25 21 17 14 12 11 9 7 5 3 1 2 2 3 3 4 6 7 10 12 14 17 19 21 23 26 29
49 49 49 49 47 45 41 39 37 36 35 32 30 27 24 19 15 11 8 6 5 3 2 2 2 3 4 4 4 3 2 2 4 6 7 10 11 12 14 16 18 21 25

GEFSMA_500_meanwind_030.txt.gz
Wind_Speed
14 15 15 16 16 16 17 18 19 19 20 21 22 24 25 27 29 32 32 33 34 35 38 40 42 44 45 47 49 50 51 51 52 51 50 50 50 49 49 49 49 48 47
17 17 17 18 19 20 21 22 22 23 24 25 27 29 30 32 33 36 37 38 39 41 42 44 46 48 49 51 53 54 55 56 56 56 55 54 53 53 52 52 51 51 51
20 21 21 21 22 23 24 26 28 28 30 31 33 35 37 38 39 41 43 45 45 46 47 48 50 52 54 55 57 58 60 60 60 60 59 58 57 56 55 54 54 53 52
24 24 24 25 27 27 28 30 32 33 36 37 39 41 43 44 45 47 48 50 52 53 53 54 55 56 58 59 60 62 63 64 64 64 63 61 60 59 58 57 56 55 54
29 28 27 28 30 31 32 34 36 38 40 42 44 46 48 50 51 53 54 56 57 58 59 60 60 61 62 63 63 64 64 65 65 66 65 64 62 61 60 59 58 58 57
32 31 30 31 33 34 36 37 39 42 44 46 48 50 52 54 56 57 59 60 62 63 64 64 65 65 65 65 65 65 64 64 64 65 65 65 64 63 61 61 60 59 59
34 34 33 34 36 39 40 41 43 45 48 50 51 53 54 56 58 60 62 63 65 66 66 67 67 67 66 65 65 64 62 60 60 60 61 62 62 61 60 60 59 59 59
35 35 37 38 39 41 43 44 46 48 50 53 55 56 56 58 60 62 63 65 66 67 67 67 67 66 64 63 61 60 58 55 54 53 54 55 56 56 56 56 56 57 58
38 38 39 41 42 44 45 47 48 50 52 54 56 57 58 58 59 61 64 66 67 67 67 67 66 66 64 62 58 56 53 51 50 48 47 48 49 50 51 51 51 51 52
41 40 41 42 45 46 46 47 48 51 52 54 56 58 59 60 60 61 63 65 65 65 66 66 65 63 61 59 57 55 52 50 48 46 45 45 46 47 48 48 48 48 48
43 42 42 44 45 46 47 49 51 53 55 56 58 60 61 62 63 63 63 64 65 65 66 66 64 61 59 57 56 55 53 51 49 47 47 47 47 47 48 48 48 48 48
45 44 45 46 48 49 50 51 53 55 57 59 60 61 62 63 64 64 64 65 66 67 67 66 64 61 59 57 56 56 55 54 52 51 50 51 51 51 51 51 51 51 51
46 46 46 49 51 53 53 54 56 58 60 60 61 61 62 62 64 65 66 67 67 67 67 65 63 61 60 59 58 58 57 57 56 56 56 55 55 56 56 55 55 55 54
48 48 50 52 54 56 56 57 58 59 60 60 60 60 61 63 65 66 67 68 67 66 65 64 63 63 62 61 61 61 60 60 60 60 61 60 60 60 60 60 59 59 58
50 51 53 56 57 58 58 58 59 60 61 60 60 61 63 65 67 68 68 68 68 66 64 64 63 63 63 63 63 63 63 63 62 63 63 63 63 63 63 64 63 63 62
52 55 57 58 58 58 58 59 60 61 61 61 62 64 65 67 68 69 69 69 69 68 66 65 64 63 61 61 61 62 61 61 61 61 61 61 61 62 63 64 65 65 65
55 57 58 59 59 58 59 60 61 62 62 62 64 65 67 68 68 69 69 69 68 68 67 64 62 59 56 54 52 52 52 52 52 53 54 54 54 55 57 60 62 64 64
57 58 60 60 60 61 62 61 61 62 62 63 64 66 67 68 68 68 68 67 66 64 62 57 52 49 47 45 44 43 42 42 43 43 44 45 45 47 49 53 56 59 61
58 61 62 62 62 62 61 60 60 61 62 64 65 67 67 68 67 66 65 62 58 55 52 48 44 42 40 39 38 36 36 36 36 37 38 38 39 41 43 46 49 52 55
60 63 64 63 62 61 59 59 60 61 62 64 65 66 66 65 63 60 56 53 50 47 45 42 38 36 33 33 32 31 31 31 32 32 32 33 34 36 38 40 42 45 48
64 65 64 64 62 58 57 58 59 61 62 63 63 63 61 58 55 52 49 46 44 41 38 35 32 29 27 27 28 27 26 26 25 26 27 28 29 30 32 34 36 38 40
67 65 63 59 56 55 55 57 59 60 61 61 60 57 54 51 48 46 44 41 38 35 31 27 24 22 22 22 22 21 20 20 20 22 22 23 24 24 25 27 28 30 32
64 61 57 54 53 53 55 56 57 58 57 56 53 50 47 44 42 39 36 33 30 25 20 17 16 17 17 16 15 14 14 13 14 16 16 16 16 17 18 19 21 23 26
59 55 52 51 51 52 53 54 54 53 51 48 46 43 40 37 34 31 28 24 20 16 13 12 12 12 11 10 9 9 8 8 9 10 9 10 11 12 14 16 18 20 23
52 49 49 49 50 51 51 50 49 46 43 41 39 37 34 30 28 24 19 15 12 9 8 8 7 6 6 6 6 6 6 6 6 6 7 7 8 10 11 13 16 19 22
46 47 48 48 48 47 46 44 41 37 35 34 33 31 27 24 20 16 12 9 7 6 6 5 5 5 5 6 7 7 7 7 7 7 7 7 8 9 10 12 14 18 21

GEFSMA_500_meanwind_036.txt.gz
Wind_Speed
17 18 18 18 18 19 20 20 20 21 22 24 25 26 28 29 30 32 32 33 34 34 35 36 37 38 39 40 41 42 43 44 44 45 45 45 46 45 45 45 45 45 45
19 20 21 22 22 23 24 24 24 25 26 27 29 30 32 34 36 37 38 39 40 41 42 43 44 45 45 46 47 48 49 50 50 51 51 51 51 51 50 50 49 49 48
22 23 24 25 26 26 27 28 28 29 30 31 32 34 35 38 40 41 43 44 45 46 47 48 49 50 51 52 52 53 54 55 55 56 56 56 56 56 55 54 53 53 52
25 26 28 28 29 29 30 31 32 33 34 35 36 38 39 41 43 45 46 48 49 50 51 51 52 54 55 55 56 57 58 59 59 60 60 60 60 59 59 58 56 55 55
30 30 31 32 32 32 32 33 35 37 38 39 40 42 43 44 46 47 49 50 51 52 54 55 56 57 58 58 59 60 61 62 62 62 62 62 62 61 61 60 59 57 56
34 35 35 34 34 34 34 34 36 39 41 42 43 44 45 46 48 49 50 51 53 54 56 57 58 59 60 61 62 62 63 63 64 64 63 63 63 63 62 61 60 58 57
37 39 39 37 37 35 35 36 37 40 42 44 45 46 47 48 50 51 51 53 55 56 58 59 60 62 63 63 64 64 64 65 64 64 64 64 63 63 62 61 59 58 57
40 40 40 39 37 37 37 37 39 41 44 45 46 47 47 49 51 52 54 56 58 59 60 61 62 63 64 64 65 65 65 65 65 64 64 64 64 62 61 59 58 58 58
41 42 42 41 39 38 39 40 42 43 45 46 48 49 49 50 52 55 58 59 60 61 62 63 63 64 65 65 65 65 65 65 65 64 64 64 63 61 60 58 58 57 58
43 43 43 41 41 41 42 43 44 45 46 48 50 51 53 54 55 57 59 61 62 62 62 63 63 64 65 65 66 66 66 66 66 66 65 64 62 60 59 58 57 57 57
44 44 44 44 44 45 45 46 47 47 48 50 52 54 57 59 60 60 59 60 61 62 63 63 64 65 67 67 68 69 69 68 68 67 66 64 62 60 58 58 57 56 55
45 45 46 46 47 47 47 48 48 49 51 53 55 58 60 61 62 61 60 60 61 62 63 65 66 68 70 70 71 72 71 71 70 69 67 65 62 59 57 57 57 56 55
46 47 47 48 48 48 49 49 50 52 54 56 59 61 61 62 62 62 62 61 61 62 65 67 69 71 73 74 74 75 75 74 72 70 68 66 63 60 58 57 57 56 55
49 49 50 50 50 50 51 52 54 55 57 59 61 61 61 62 63 63 63 63 63 64 66 68 71 74 75 76 76 77 77 76 74 72 70 68 65 62 60 58 57 57 56
52 52 52 52 52 53 55 56 57 58 60 61 61 62 62 63 64 64 64 66 67 66 67 69 72 75 76 76 75 75 74 74 72 71 69 67 66 63 61 60 59 58 58
55 55 56 56 58 58 59 60 60 61 61 62 62 62 63 63 64 64 65 67 69 70 70 70 73 75 75 73 70 68 66 65 63 62 61 61 61 60 60 59 59 60 60
58 59 60 61 61 62 62 62 62 62 63 63 63 62 62 64 64 65 66 68 70 72 72 71 71 70 67 64 61 59 56 54 52 51 51 51 52 53 54 56 58 59 60
62 63 63 64 64 63 63 63 62 62 63 63 62 63 63 63 63 64 66 67 69 70 70 67 63 60 58 55 52 50 47 45 43 42 42 43 44 45 47 49 52 55 58
64 64 63 63 63 62 62 61 60 61 62 62 63 63 62 62 62 63 64 65 66 65 63 60 54 50 47 45 42 40 38 36 35 35 35 36 36 38 40 43 46 49 53
62 61 60 60 60 59 59 60 61 61 61 61 61 60 60 60 60 61 61 61 59 56 52 49 44 41 38 36 34 31 28 28 28 29 30 31 32 34 35 38 40 43 46
58 58 58 58 59 59 59 60 61 60 60 58 58 58 58 58 58 58 56 53 49 45 41 38 34 31 29 28 26 24 22 23 24 25 25 26 27 28 30 31 34 37 40
55 56 56 57 57 58 59 59 59 57 56 55 55 55 55 55 54 51 47 43 39 34 30 27 25 23 21 20 19 19 19 19 20 21 20 20 20 21 24 26 29 31 34
54 54 55 57 58 58 58 57 55 54 54 53 53 52 51 49 44 40 36 32 28 25 22 20 18 17 16 16 16 16 17 17 16 17 16 16 16 17 19 21 24 26 28
52 54 56 56 56 55 54 52 51 51 50 50 48 46 43 39 35 30 25 22 20 18 17 16 15 15 15 15 15 15 15 15 15 15 14 13 14 14 14 16 19 21 24
53 54 54 53 51 49 48 47 47 46 46 44 41 38 33 29 25 20 17 15 14 13 13 13 13 14 14 15 15 15 15 15 15 15 14 13 12 12 12 12 14 16 18
50 49 47 45 45 44 44 43 42 40 38 36 33 29 26 21 16 13 11 10 10 10 11 12 13 14 15 16 16 16 16 15 14 13 12 11 10 10 10 10 11 13 15

GEFSMA_500_meanwind_042.txt.gz
Wind_Speed
14 14 14 15 16 17 17 19 20 22 23 25 26 26 26 26 26 27 28 29 30 31 32 34 35 36 37 38 39 40 40 41 42 42 43 43 43 43 43 43 43 42 41
17 17 17 17 18 19 21 22 23 25 25 27 28 29 30 31 31 32 33 33 34 35 36 37 38 39 40 41 42 43 43 44 44 45 46 47 47 47 47 46 46 46 46
21 21 21 20 21 22 23 24 26 28 29 29 30 31 33 34 35 36 37 38 39 40 40 41 42 42 43 44 45 45 46 47 47 48 49 50 50 50 50 50 49 49 48
27 25 25 24 24 25 25 27 29 31 31 31 32 34 36 37 38 39 40 41 42 43 44 44 45 45 46 46 47 47 48 49 50 50 51 52 52 52 52 52 52 51 50
30 29 28 27 28 28 28 29 30 31 32 33 35 36 38 39 40 42 43 44 45 46 47 48 48 48 49 49 50 51 52 53 54 55 55 55 55 54 54 54 53 53 52
31 30 30 29 29 29 30 31 32 32 33 35 36 38 39 40 41 43 44 45 47 48 50 51 51 52 52 53 54 55 56 57 57 58 59 58 58 57 57 56 55 55 54
31 30 30 30 30 31 32 32 32 33 33 34 36 38 40 42 43 44 45 47 49 50 51 52 53 54 56 57 58 58 59 60 61 61 61 61 60 59 59 58 57 56 56
30 29 29 29 30 31 32 33 34 34 35 37 39 40 41 43 45 46 47 49 51 52 54 55 56 58 59 61 62 62 62 62 62 62 62 62 62 61 61 60 60 59 58
28 27 27 29 30 32 34 35 36 37 39 40 41 43 44 45 46 47 49 51 53 55 57 58 60 61 62 63 64 64 64 64 64 63 63 63 64 64 63 63 63 62 61
29 28 29 30 32 34 35 37 39 41 42 43 45 46 47 48 49 50 51 53 56 58 60 62 63 64 65 66 66 66 66 66 66 66 66 66 66 66 67 67 67 66 65
30 30 31 32 34 36 38 41 43 44 46 47 48 49 51 52 53 54 55 57 59 61 63 65 66 67 68 68 68 69 69 69 69 69 69 69 70 70 71 71 70 69 68
32 32 34 36 38 40 43 45 47 49 50 51 52 54 55 57 58 59 60 61 62 63 65 67 68 69 70 70 70 70 71 72 72 72 73 74 75 75 75 75 74 73 70
36 37 39 41 43 45 47 50 51 53 54 56 57 59 60 62 63 64 65 65 64 64 65 66 67 69 70 71 71 72 73 74 74 75 76 77 78 78 79 78 77 75 73
42 43 44 46 48 51 53 54 56 57 59 61 62 63 64 65 66 66 66 66 64 63 63 64 66 69 70 71 72 73 74 75 76 76 77 77 77 77 77 77 76 75 73
47 48 50 52 54 56 57 59 60 62 63 63 64 65 65 65 65 65 65 65 65 63 62 64 66 69 71 71 72 73 73 73 73 73 72 72 71 71 70 71 71 70 70
51 53 56 58 59 60 61 62 63 64 63 64 64 64 64 65 65 65 64 64 64 64 63 63 66 67 69 69 69 69 68 67 65 63 61 60 60 60 61 62 63 63 64
57 58 60 61 62 62 63 63 63 64 64 64 64 64 64 63 63 63 63 64 64 65 64 63 65 65 66 66 65 64 61 58 54 52 51 51 50 50 50 51 52 53 54
59 61 62 62 63 63 63 62 62 62 63 63 63 62 62 62 62 62 63 63 63 63 63 62 60 60 59 58 56 52 49 46 44 43 42 41 41 41 41 41 41 43 46
61 62 62 62 63 62 62 61 61 61 61 61 60 60 60 60 61 61 62 62 62 61 60 58 55 53 51 48 44 41 39 37 36 35 34 33 34 34 34 34 34 35 37
61 61 61 61 61 60 60 61 60 60 59 59 58 58 58 59 60 60 60 59 58 56 55 53 49 45 40 38 36 33 32 32 32 31 30 29 29 28 28 29 29 30 31
60 60 60 59 59 58 58 58 57 56 56 56 57 58 58 58 58 57 56 54 53 51 47 43 38 34 32 31 30 30 29 29 30 30 27 26 26 25 26 25 25 26 27
58 57 57 57 57 56 55 55 55 56 56 56 56 56 56 55 54 53 51 49 46 42 37 32 28 27 27 28 28 28 28 27 27 27 26 25 25 24 23 22 22 22 23
55 54 54 54 54 53 53 54 54 54 54 53 52 51 50 50 49 46 43 40 36 32 27 23 22 24 25 26 26 26 27 27 26 26 25 24 24 22 20 19 19 19 19
51 51 51 51 51 51 52 51 51 51 50 49 48 46 44 42 39 36 32 29 26 23 21 21 22 23 24 24 25 26 26 25 25 25 23 21 21 19 18 17 16 15 16
47 47 47 48 48 48 48 47 47 46 46 44 42 40 37 33 29 25 22 20 19 18 19 20 21 22 24 24 25 24 23 22 22 21 20 18 17 15 15 14 13 13 13
45 45 44 44 44 44 44 43 41 40 39 38 35 32 27 23 19 17 14 13 14 15 17 19 21 22 23 23 22 21 20 19 18 17 16 15 14 12 11 11 10 10 10

GEFSMA_500_meanwind_048.txt.gz
Wind_Speed
20 21 22 22 22 22 22 22 22 22 22 22 22 23 24 24 24 25 25 26 27 28 29 30 30 31 32 33 34 35 36 36 37 37 38 38 38 38 38 38 38 38 38
24 25 27 27 27 26 25 25 25 25 25 25 25 25 26 26 27 27 28 28 29 30 31 33 34 35 36 37 38 39 40 41 41 42 42 42 42 42 41 41 41 41 41
28 29 31 31 32 31 30 29 29 29 29 29 28 28 28 28 28 29 30 31 32 32 34 35 36 38 39 40 41 42 43 44 45 45 45 45 46 46 45 45 44 44 44
33 34 35 36 36 35 35 33 32 32 32 31 30 29 29 29 29 30 31 33 34 36 37 38 39 40 42 43 44 45 46 47 47 48 48 49 49 49 49 49 48 48 48
35 36 37 38 38 38 38 37 36 34 33 33 32 31 30 30 31 31 33 34 36 38 40 40 42 43 44 45 46 47 48 49 50 50 51 52 52 53 53 52 53 53 52
37 38 39 39 40 40 39 38 37 35 34 34 33 32 31 31 31 32 34 35 37 39 41 43 44 45 46 48 49 50 51 52 52 53 54 55 56 56 56 56 56 56 56
39 40 39 38 38 38 37 37 37 35 32 32 32 31 30 31 33 34 35 38 39 41 42 43 45 47 48 50 51 52 54 54 55 56 57 58 58 59 59 60 59 59 59
40 37 34 33 33 33 34 34 33 32 31 30 31 32 32 33 34 36 38 40 42 44 45 46 48 50 51 53 54 55 57 58 59 60 61 61 61 62 63 63 63 62 62
37 35 31 29 27 27 28 28 29 30 30 30 32 33 35 38 39 40 41 44 46 48 50 51 52 54 55 57 59 60 60 62 63 64 64 65 65 66 66 65 66 65 65
39 34 32 30 28 27 28 28 29 30 31 33 35 37 40 42 45 46 47 48 50 52 54 56 57 59 60 61 62 64 64 65 66 67 68 68 68 68 68 68 68 68 67
39 34 32 32 32 31 32 32 32 33 35 38 39 41 44 47 49 51 53 55 56 57 58 60 61 63 64 65 66 67 67 68 69 69 69 69 69 69 69 69 69 70 70
39 36 37 36 35 35 35 36 38 39 41 43 45 47 49 51 54 55 57 58 60 61 62 63 65 66 68 68 69 69 69 69 69 69 69 69 70 70 71 71 72 72 72
41 40 39 38 39 39 40 42 43 44 46 48 50 52 53 55 57 59 60 61 62 64 65 66 67 68 69 70 70 69 69 69 69 69 70 70 70 71 71 71 71 72 72
42 43 43 43 44 45 46 47 48 49 51 52 54 55 57 58 60 61 62 63 64 64 66 67 67 68 68 69 69 69 69 69 68 68 68 68 68 68 68 69 69 70 70
46 47 48 49 49 50 51 51 52 53 54 55 56 57 58 60 61 61 62 63 64 64 64 66 66 67 67 68 68 67 67 66 66 65 65 65 65 65 64 64 64 65 65
50 51 52 53 53 53 53 54 54 54 55 56 57 58 59 60 60 61 62 63 63 63 62 63 64 64 64 65 65 65 64 63 62 62 61 60 60 59 58 58 57 56 56
53 55 55 56 56 56 55 55 56 55 56 56 57 58 59 59 60 61 61 60 60 60 60 60 61 62 62 62 62 61 59 58 57 56 55 54 52 51 49 47 46 46 47
58 59 59 59 58 57 56 56 56 56 56 56 57 57 57 57 57 57 57 57 58 59 59 58 58 59 59 58 57 56 54 53 52 49 46 44 42 41 41 41 41 41 42
61 61 60 59 58 57 56 56 55 55 55 55 55 55 55 54 54 54 54 55 56 56 56 56 55 55 54 53 51 50 47 45 42 39 37 36 36 37 37 38 38 38 38
61 61 60 59 58 57 56 56 55 54 54 54 53 52 51 51 51 52 53 53 53 53 52 51 49 48 47 45 43 41 39 37 35 34 34 33 33 34 34 34 35 35 35
60 59 59 58 57 56 55 54 53 52 51 50 50 49 49 50 50 50 51 50 49 48 46 45 42 40 38 36 35 34 33 32 32 33 32 32 32 32 32 32 32 32 32
59 58 57 56 55 54 53 52 50 49 48 48 48 48 48 48 48 48 47 45 43 42 39 37 34 32 31 31 30 30 30 30 29 30 31 31 31 30 30 30 30 30 30
56 55 54 53 52 51 50 48 47 47 46 46 46 46 47 46 45 44 42 39 37 33 31 29 27 26 26 27 27 27 27 27 28 27 27 27 28 28 28 28 28 27 27
51 50 50 49 49 48 47 47 46 45 45 44 44 44 43 42 40 37 34 32 29 28 26 24 24 24 25 25 25 25 25 25 25 25 25 25 25 25 24 24 24 23 23
48 47 47 47 46 46 45 44 44 44 43 42 41 39 37 35 31 28 25 24 23 22 21 21 22 22 22 22 23 23 23 23 23 23 24 23 23 22 21 20 19 18 19
45 45 45 45 45 44 43 43 42 41 39 38 35 32 29 25 22 20 19 18 17 18 19 19 19 20 20 21 22 22 22 22 22 22 22 21 20 19 18 17 16 15 15

GEFSMA_500_meanwind_054.txt.gz
Wind_Speed
21 22 24 24 25 26 26 28 28 28 27 28 28 28 27 27 29 27 24 24 25 25 25 25 26 26 27 28 28 29 30 31 32 33 34 34 35 35 36 36 36 36 36
23 25 26 27 28 29 31 31 31 31 32 32 32 31 31 30 30 30 28 27 27 28 28 28 28 29 29 30 31 32 33 34 35 36 37 38 39 40 40 40 40 40 40
25 26 27 29 31 31 33 33 32 32 33 34 34 34 33 32 31 32 32 31 29 28 29 29 30 31 32 33 33 34 36 37 38 39 40 41 42 43 43 43 44 44 44
27 28 30 32 32 32 32 32 33 33 33 33 33 33 34 34 34 34 33 32 31 30 30 31 32 33 34 35 36 38 39 40 41 42 43 44 45 46 46 47 47 47 47
30 30 32 34 33 34 33 32 32 31 31 31 30 30 31 33 35 34 34 34 33 32 32 31 33 35 37 38 40 41 42 43 44 45 46 47 48 49 50 50 51 51 51
32 33 34 34 34 34 33 32 31 29 29 28 28 28 28 30 32 32 33 34 34 34 35 36 36 37 38 41 42 44 45 46 47 48 49 51 52 53 54 54 55 55 54
35 34 35 34 35 35 33 32 31 30 29 28 27 26 28 28 30 31 32 33 35 36 38 40 40 40 41 42 44 46 48 49 51 52 54 55 56 57 58 59 59 59 59
36 36 37 36 36 35 33 32 32 31 29 28 28 28 28 29 30 31 32 34 36 38 40 42 42 44 46 47 48 49 51 53 55 57 59 60 61 63 63 63 64 64 64
39 39 39 38 37 36 35 33 33 33 32 32 31 32 32 32 33 34 35 38 40 41 43 45 47 49 50 52 54 56 57 58 60 62 64 66 67 68 68 68 68 68 68
42 41 41 40 39 38 37 35 35 35 35 35 36 36 36 37 38 39 41 43 45 46 48 49 51 54 56 58 60 62 63 64 65 67 69 70 71 72 73 73 73 72 72
43 43 43 42 41 40 39 38 38 38 38 39 39 40 41 42 44 45 47 49 51 53 54 55 57 59 61 63 65 66 67 69 69 70 71 72 73 74 75 75 74 74 74
45 44 45 44 43 42 42 42 42 42 43 43 44 45 46 48 49 50 52 53 54 56 58 60 62 64 66 68 69 70 70 71 71 72 73 74 74 74 74 74 74 74 74
46 46 46 46 46 45 46 46 46 46 47 48 49 49 50 52 53 54 56 57 58 59 62 64 66 67 69 70 72 72 72 73 73 73 73 72 72 72 72 72 72 72 71
47 48 48 48 48 49 49 49 50 50 51 52 52 53 54 55 56 57 59 60 61 62 64 65 67 69 71 71 72 72 72 72 71 70 70 70 70 70 70 69 69 68 68
50 50 50 51 52 52 53 53 53 54 54 55 55 56 56 57 58 59 61 62 63 63 64 65 67 69 70 70 70 70 70 69 69 69 69 68 67 67 66 66 66 65 65
52 52 53 54 55 55 56 57 57 57 58 58 58 58 58 59 60 60 61 62 63 63 63 64 65 66 66 66 67 67 66 66 65 65 64 63 63 63 63 63 63 62 61
54 55 56 58 59 59 60 60 60 60 59 59 59 59 59 59 59 60 60 61 61 61 61 60 61 62 63 63 64 63 63 61 60 60 59 59 58 57 57 56 56 56 56
57 58 59 60 61 61 61 60 61 61 61 60 60 59 59 58 58 58 57 58 58 58 58 57 58 60 60 60 59 57 57 56 54 53 52 51 50 49 49 48 48 47 47
59 60 60 60 61 61 61 61 62 61 61 60 59 58 57 56 55 55 55 55 55 55 56 56 56 56 54 53 52 52 50 49 48 48 47 45 44 43 42 42 41 41 40
60 60 60 61 61 61 61 61 60 59 58 57 56 55 54 53 52 52 52 52 53 53 53 53 51 49 48 47 46 46 44 44 43 42 41 39 37 36 36 36 37 37 37
59 60 60 60 60 60 59 58 58 57 55 54 53 52 51 50 49 49 49 49 50 50 49 47 45 43 41 41 40 40 38 37 36 36 35 34 34 34 33 33 33 33 33
59 59 58 58 58 57 57 56 54 53 52 51 50 49 48 47 47 47 47 47 46 45 43 40 37 37 36 35 34 33 33 32 31 32 32 31 32 31 31 31 31 31 31
56 56 56 56 55 54 53 52 51 50 50 49 47 47 46 46 45 44 43 42 40 38 35 33 32 31 29 28 28 29 30 30 30 30 29 28 29 29 30 30 29 29 29
54 54 53 53 52 51 51 50 49 48 46 46 45 44 43 42 41 39 38 35 33 31 29 28 26 25 24 25 27 28 28 29 29 30 28 27 26 27 27 27 26 25 25
51 51 51 50 49 49 48 47 45 44 43 42 41 39 38 37 35 32 29 27 25 25 24 22 20 21 22 24 25 26 27 27 27 27 27 26 25 24 25 24 23 21 20
49 48 48 47 46 45 43 42 40 39 37 36 34 32 30 28 26 23 21 19 19 18 18 18 18 20 21 23 24 25 25 25 25 24 24 23 23 22 21 21 20 18 17

GEFSMA_500_meanwind_060.txt.gz
Wind_Speed
7 7 7 8 10 11 13 14 16 16 17 17 19 20 19 19 19 19 20 20 22 23 24 25 25 25 25 26 27 27 28 29 29 30 31 32 32 33 33 34 34 35 35
8 8 9 10 12 13 13 14 15 16 16 17 18 19 20 20 20 19 20 21 22 24 25 26 26 27 28 28 29 30 31 31 32 33 33 34 35 36 37 37 38 39 39
10 11 12 13 13 13 14 14 15 16 17 17 18 19 20 19 20 20 20 21 22 24 27 28 29 29 30 31 31 31 33 34 34 35 36 37 38 39 40 41 41 42 42
14 15 15 16 16 16 16 16 17 17 17 18 18 19 19 20 20 20 20 21 23 24 26 28 30 31 32 33 33 34 35 36 37 38 39 40 41 42 42 43 44 45 45
18 18 19 19 20 19 19 19 19 19 19 20 20 20 21 21 22 23 23 23 24 25 27 28 30 32 33 35 36 37 38 39 40 42 42 43 45 46 46 47 48 49 49
22 22 23 23 23 22 22 22 22 22 22 22 22 22 23 23 24 25 26 27 28 28 29 30 31 32 34 37 39 41 42 44 45 46 47 49 50 51 52 53 54 54 54
27 27 27 27 26 27 26 25 25 25 25 26 26 25 25 25 26 26 28 29 30 31 32 33 34 35 37 38 41 43 45 47 49 51 52 54 56 57 58 58 59 59 60
32 32 31 31 30 30 29 29 28 28 28 29 29 28 28 28 29 30 32 33 34 35 36 37 38 40 41 43 45 47 48 50 52 55 57 59 61 62 62 63 64 65 65
36 36 34 34 32 32 32 32 31 31 31 31 31 32 32 31 32 33 35 37 39 40 41 43 44 46 47 49 51 52 54 55 57 59 61 63 65 66 68 69 69 70 70
38 38 38 36 36 37 36 34 34 34 34 35 36 36 36 37 37 38 40 42 43 45 47 48 50 52 54 55 57 58 59 61 63 65 67 69 70 71 72 74 74 75 75
37 38 38 38 39 39 37 37 38 38 39 39 40 40 41 42 43 44 45 46 48 50 51 54 56 57 59 60 61 63 65 66 68 70 72 73 74 75 76 76 77 77 77
39 40 41 42 42 41 41 41 41 42 43 43 44 45 46 47 48 49 50 51 53 55 57 59 60 62 63 65 66 68 70 71 72 73 74 75 76 76 76 76 76 76 76
41 42 44 45 44 45 45 44 45 46 47 47 48 49 51 52 53 54 55 56 57 58 61 63 64 65 66 68 70 71 72 73 74 74 75 75 75 75 75 75 74 74 73
44 44 45 46 45 46 47 48 48 49 51 52 53 54 56 57 58 59 59 60 60 61 63 65 66 67 68 69 71 71 72 72 72 72 73 73 72 72 72 71 71 70 70
46 47 48 48 49 50 51 52 53 54 55 56 58 59 60 61 62 62 62 62 63 63 63 65 67 68 68 69 69 69 69 69 69 69 69 69 69 69 68 67 67 67 66
49 49 50 51 53 54 56 57 58 58 59 60 61 61 62 62 62 63 63 64 64 64 64 64 64 65 65 65 65 65 65 65 66 66 66 66 65 65 64 63 63 62 61
52 53 55 56 57 58 59 60 61 62 62 62 62 62 63 63 64 64 64 64 63 63 62 61 61 62 62 61 62 62 63 63 62 62 61 60 59 58 57 56 56 56 56
55 56 58 60 61 61 62 62 63 63 63 64 64 65 65 64 64 63 63 62 61 60 59 58 58 58 59 59 59 59 59 58 57 55 53 53 52 51 51 51 50 50 51
58 59 60 61 62 63 64 64 64 64 65 65 65 64 64 64 63 61 60 59 59 58 57 56 55 56 56 56 55 55 53 51 49 49 48 47 46 45 45 44 44 44 44
59 60 61 62 63 64 64 64 64 64 64 64 64 63 63 61 60 59 58 57 56 55 54 54 53 52 52 52 50 48 46 45 44 43 41 40 40 39 39 39 39 39 39
58 59 60 61 62 63 63 63 63 63 62 62 62 61 60 59 57 56 55 54 53 52 51 50 49 48 47 45 43 41 39 36 37 37 36 37 37 37 38 37 36 36 36
57 58 59 59 60 61 61 61 60 60 59 59 58 57 55 54 52 51 50 50 49 47 46 44 43 41 38 37 35 33 32 31 31 33 33 34 34 35 35 35 34 33 33
55 56 56 57 58 58 57 57 56 56 55 54 52 51 49 48 47 46 45 44 43 41 39 36 34 32 31 29 27 27 28 29 29 30 29 30 32 32 32 31 30 30 29
52 53 54 54 55 54 54 53 52 51 50 49 47 45 43 42 40 39 38 37 35 33 30 28 25 24 23 23 23 23 24 25 27 28 27 27 28 29 29 28 27 26 27
51 51 51 51 51 51 50 49 47 45 43 41 39 36 35 33 32 30 28 27 26 24 21 19 18 18 18 19 20 21 22 23 24 26 26 26 25 25 26 25 24 22 22
48 48 47 45 44 43 43 41 39 37 34 32 29 27 26 24 23 21 19 18 17 16 15 15 15 15 16 17 19 20 21 21 22 22 23 23 23 22 23 23 22 21 19